McAllen, TX

10:07 AM CDT on May 28, 2017 (GMT -0500)
McAllen Miller International

Weather History for KMFE - July, 2012

Change the Weather History Date:

Saturday, July 14, 2012

  Actual Average Record
Temperature  
Mean Temperature 91 °F 87 °F  
Max Temperature 102 °F 97 °F 104 °F (1998)
Min Temperature 79 °F 76 °F 70 °F (1975)
Degree Days  
Heating Degree Days 0 0  
Month to date heating degree days 0 0  
Since 1 June heating degree days 0 0  
Since 1 July heating degree days 0 0  
Cooling Degree Days 26 22  
Month to date cooling degree days 330 298  
Year to date cooling degree days 2573 2181  
Since 1 June cooling degree days 1000 926  
Growing Degree Days 40 (Base 50)    
Moisture  
Dew Point 70 °F    
Average Humidity 57    
Maximum Humidity 85    
Minimum Humidity 29    
Precipitation  
Precipitation 0.00 in 0.08 in 1.02 in (1975)
Month to date precipitation 0.03 1.07  
Year to date precipitation 12.91 10.43  
Sea Level Pressure  
Sea Level Pressure 29.93 in    
Wind  
Wind Speed 10 mph (SSE)    
Max Wind Speed 25 mph    
Max Gust Speed 32 mph    
Visibility 10 miles    
Events      
T = Trace of Precipitation, MM = Missing Value Source: NWS Daily Summary

Daily Weather History Graph

Daily Weather History Graph

Search for Another Location

Airport or City:

Trip Planner

Search our weather history database for the weather conditions in past years. The results will help you decide how hot, cold, wet, or windy it might be!

Date:

Astronomy

Jul. 14, 2012 Rise Set
Actual Time 6:49 AM CDT 8:27 PM CDT
Civil Twilight 6:24 AM CDT 8:53 PM CDT
Nautical Twilight 5:53 AM CDT 9:23 PM CDT
Astronomical Twilight 5:21 AM CDT 9:56 PM CDT
Moon 3:02 AM CDT (7/14) 4:54 PM CDT (7/14)
Length of Visible Light 14h 28m
Length of Day
13h 37m
Waning Crescent, 18% of the Moon is Illuminated
Jul 14
Waning Crescent
Jul 18
New
Jul 26
First Quarter
Aug 1
Full
Aug 9
Last Quarter

Hourly Weather History & Observations

Time (CDT) Temp. Heat Index Dew Point Humidity Pressure Visibility Wind Dir Wind Speed Gust Speed Precip Events Conditions
12:53 AM 82.9 °F 90.2 °F 75.0 °F 77% 29.93 in 10.0 mi SSE 9.2 mph - N/A   Clear
1:53 AM 82.9 °F 90.2 °F 75.0 °F 77% 29.92 in 10.0 mi SE 8.1 mph - N/A   Clear
2:53 AM 82.0 °F 89.4 °F 75.9 °F 82% 29.94 in 10.0 mi SSE 3.5 mph - N/A   Mostly Cloudy
3:18 AM 82.4 °F 89.5 °F 75.2 °F 79% 29.95 in 10.0 mi SSE 4.6 mph - N/A   Scattered Clouds
3:53 AM 82.0 °F 89.4 °F 75.9 °F 82% 29.93 in 10.0 mi SE 5.8 mph - N/A   Clear
4:53 AM 81.0 °F 86.7 °F 75.0 °F 82% 29.92 in 10.0 mi SSE 4.6 mph - N/A   Clear
5:53 AM 80.6 °F 85.4 °F 73.4 °F 79% 29.92 in 10.0 mi SSE 5.8 mph - N/A   Clear
6:53 AM 79.0 °F - 73.9 °F 84% 29.93 in 10.0 mi ESE 4.6 mph - N/A   Clear
7:53 AM 81.0 °F 86.2 °F 73.9 °F 79% 29.95 in 10.0 mi SE 10.4 mph - N/A   Clear
8:53 AM 84.9 °F 90.7 °F 72.0 °F 65% 29.96 in 10.0 mi South 9.2 mph - N/A   Clear
9:53 AM 89.1 °F 94.1 °F 70.0 °F 53% 29.96 in 10.0 mi South 8.1 mph - N/A   Clear
10:53 AM 91.9 °F 95.9 °F 68.0 °F 45% 29.96 in 10.0 mi SSW 9.2 mph 19.6 mph N/A   Clear
11:53 AM 93.9 °F 99.1 °F 69.1 °F 44% 29.96 in 10.0 mi South 11.5 mph - N/A   Clear
12:53 PM 98.1 °F 101.8 °F 66.0 °F 35% 29.94 in 10.0 mi South 12.7 mph 18.4 mph N/A   Clear
1:53 PM 99.0 °F 101.7 °F 64.0 °F 32% 29.92 in 10.0 mi South 6.9 mph 19.6 mph N/A   Partly Cloudy
2:53 PM 100.0 °F 101.8 °F 63.0 °F 29% 29.90 in 10.0 mi South 8.1 mph 20.7 mph N/A   Partly Cloudy
3:53 PM 100.9 °F 103.3 °F 63.0 °F 29% 29.88 in 10.0 mi SE 21.9 mph 27.6 mph N/A   Partly Cloudy
4:53 PM 99.0 °F 100.5 °F 63.0 °F 30% 29.86 in 10.0 mi SSE 18.4 mph 32.2 mph N/A   Clear
5:53 PM 97.0 °F 100.4 °F 66.0 °F 36% 29.86 in 10.0 mi SE 21.9 mph 27.6 mph N/A   Clear
6:53 PM 93.0 °F 94.6 °F 64.0 °F 38% 29.89 in 10.0 mi SSE 13.8 mph 21.9 mph N/A   Clear
7:53 PM 90.0 °F 91.7 °F 64.9 °F 43% 29.89 in 10.0 mi SSE 16.1 mph - N/A   Clear
8:53 PM 88.0 °F 90.3 °F 66.0 °F 48% 29.91 in 10.0 mi SE 8.1 mph - N/A   Clear
9:53 PM 86.0 °F 91.5 °F 71.1 °F 61% 29.93 in 10.0 mi SE 11.5 mph - N/A   Clear
10:53 PM 84.0 °F 89.6 °F 72.0 °F 67% 29.96 in 10.0 mi SE 9.2 mph - N/A   Clear
11:53 PM 82.9 °F 88.8 °F 73.0 °F 72% 29.96 in 10.0 mi SE 12.7 mph - N/A   Clear